バロス彗星

C/2017 D2 ( Barros )

English version
Home page
Updated on February 13, 2018

---------------------------------------------------------------------

・ プロフィール

発見日 2017年2月23日
発見光度 17.4等
発見者 J. Barros (SONEAR Observatory at Oliveira)

・ 写真集

・ 軌道要素

Epoch 2017 July 26.0 TT = JDT 2457960.5
T 2017 July 14.53212 TT                                 MPCW
q   2.4858692            (2000.0)            P               Q
z  +0.0007296      Peri.  334.33917     +0.60946190     +0.75193791
 +/-0.0000011      Node   331.04191     -0.60815192     +0.24005664
e   0.9981863      Incl.   31.26571     -0.50863291     +0.61397246
From 401 observations 2017 Feb. 23-2018 Jan. 12, mean residual 0".5.

・ 星図

・ 光度変化

        m1 = 11.0 + 5 logΔ + 10.0 log r(t + 100)

---------------------------------------------------------------------

軌道要素はM.P.E.C. 2018-B155に掲載されたものです。
星図はステラナビゲータ Ver.10 (アストロアーツ) で作成したものです。
光度グラフはComet for Windowsで作成したものです。

---------------------------------------------------------------------

Copyright(C) Seiichi Yoshida (comet@aerith.net). All rights reserved.